TimeHST,TemperatureF,Dew PointF,Humidity,Sea Level PressureIn,VisibilityMPH,Wind Direction,Wind SpeedMPH,Gust SpeedMPH,PrecipitationIn,Events,Conditions,WindDirDegrees,DateUTC
12:53 AM,69.1,63.0,81,29.98,10.0,WSW,4.6,-,N/A,,Clear,250,2013-11-24 10:53:00
1:53 AM,71.1,63.0,75,29.96,10.0,West,5.8,-,N/A,,Overcast,260,2013-11-24 11:53:00
2:53 AM,72.0,63.0,73,29.95,10.0,WSW,5.8,-,N/A,,Overcast,250,2013-11-24 12:53:00
3:53 AM,73.0,62.1,68,29.95,10.0,WNW,3.5,-,N/A,,Overcast,290,2013-11-24 13:53:00
4:53 AM,70.0,63.0,78,29.95,10.0,West,4.6,-,N/A,,Overcast,260,2013-11-24 14:53:00
5:53 AM,71.1,61.0,70,29.96,10.0,WNW,3.5,-,N/A,,Mostly Cloudy,300,2013-11-24 15:53:00
6:53 AM,73.9,62.1,66,29.96,10.0,NNW,8.1,-,N/A,,Scattered Clouds,330,2013-11-24 16:53:00
7:53 AM,73.0,62.1,68,29.99,10.0,WSW,5.8,-,N/A,,Scattered Clouds,240,2013-11-24 17:53:00
8:53 AM,79.0,64.0,60,29.99,10.0,North,6.9,-,N/A,,Mostly Cloudy,10,2013-11-24 18:53:00
9:53 AM,82.0,61.0,49,29.99,10.0,NNW,10.4,-,N/A,,Mostly Cloudy,330,2013-11-24 19:53:00
10:53 AM,82.0,63.0,52,29.98,10.0,NNE,11.5,-,N/A,,Scattered Clouds,30,2013-11-24 20:53:00
11:53 AM,82.9,66.0,56,29.97,10.0,North,10.4,-,N/A,,Scattered Clouds,10,2013-11-24 21:53:00
12:53 PM,82.9,63.0,51,29.96,10.0,North,11.5,-,N/A,,Scattered Clouds,10,2013-11-24 22:53:00
1:53 PM,82.9,64.9,54,29.94,10.0,NNE,12.7,-,N/A,,Mostly Cloudy,30,2013-11-24 23:53:00
2:53 PM,82.0,64.0,54,29.92,10.0,ENE,13.8,-,N/A,,Partly Cloudy,60,2013-11-25 00:53:00
3:53 PM,79.0,63.0,58,29.91,10.0,East,6.9,-,N/A,,Scattered Clouds,80,2013-11-25 01:53:00
4:53 PM,78.1,64.0,62,29.94,10.0,NE,6.9,-,N/A,,Overcast,50,2013-11-25 02:53:00
5:53 PM,77.0,63.0,62,29.95,10.0,NE,5.8,-,N/A,,Overcast,50,2013-11-25 03:53:00
6:53 PM,75.0,66.0,73,29.96,10.0,West,5.8,-,0.00,,Overcast,270,2013-11-25 04:53:00
7:53 PM,73.9,66.9,79,29.98,10.0,West,6.9,-,0.00,,Overcast,260,2013-11-25 05:53:00
8:53 PM,73.0,66.9,81,29.99,10.0,Calm,Calm,-,0.00,,Overcast,0,2013-11-25 06:53:00
9:53 PM,73.0,66.0,79,30.00,10.0,SW,3.5,-,N/A,,Overcast,230,2013-11-25 07:53:00
10:53 PM,73.0,64.9,76,29.99,10.0,SW,3.5,-,0.00,Rain,Light Rain,230,2013-11-25 08:53:00
11:53 PM,72.0,66.0,81,29.99,10.0,WSW,5.8,-,0.00,,Overcast,240,2013-11-25 09:53:00